START_TIME,STEP,MOV.,A39,t_acc.,A33,t_acc.,P32,t_acc.,P31,t_acc.
1979-03-01 03:00:12.150 ,5,0,3.,0.8,0.,0.8,1.,0.8,5.,0.8
1979-03-01 03:00:12.950 ,5,0,2.,0.8,0.,0.8,0.,0.8,5.,0.8
1979-03-01 03:00:13.750 ,5,0,4.,0.8,0.,0.8,0.,0.8,10.,0.8
1979-03-01 03:00:14.550 ,5,0,2.,0.8,0.,0.8,0.,0.8,4.,0.8
1979-03-01 03:00:15.350 ,5,0,1.,0.8,0.,0.8,1.,0.8,7.,0.8
1979-03-01 03:00:16.150 ,5,0,3.,0.8,0.,0.8,0.,0.8,3.,0.8
1979-03-01 03:00:16.950 ,5,0,2.,0.8,0.,0.8,0.,0.8,9.,0.8
1979-03-01 03:00:17.750 ,5,0,1.,0.8,0.,0.8,0.,0.8,1.,0.8
1979-03-01 03:00:18.550 ,5,0,3.,0.8,0.,0.8,0.,0.8,6.,0.8
1979-03-01 03:00:19.350 ,5,0,2.,0.8,0.,0.8,1.,0.8,6.,0.8
1979-03-01 03:00:20.150 ,5,0,3.,0.8,0.,0.8,0.,0.8,8.,0.8
1979-03-01 03:00:20.950 ,5,0,2.,0.8,0.,0.8,0.,0.8,4.,0.8
1979-03-01 03:00:21.750 ,5,0,2.,0.8,0.,0.8,0.,0.8,4.,0.8
1979-03-01 03:00:22.550 ,5,0,1.,0.8,0.,0.8,0.,0.8,3.,0.8
1979-03-01 03:00:23.350 ,5,0,1.,0.8,0.,0.8,0.,0.8,2.,0.8
1979-03-01 03:00:24.150 ,5,0,0.,0.8,0.,0.8,0.,0.8,5.,0.8
1979-03-01 03:00:24.950 ,5,0,2.,0.8,0.,0.8,0.,0.8,3.,0.8
1979-03-01 03:00:25.750 ,5,0,1.,0.8,0.,0.8,0.,0.8,2.,0.8
1979-03-01 03:00:26.550 ,5,0,2.,0.8,0.,0.8,0.,0.8,6.,0.8
1979-03-01 03:00:27.350 ,5,0,1.,0.8,0.,0.8,0.,0.8,2.,0.8
1979-03-01 03:00:28.150 ,5,0,2.,0.8,0.,0.8,0.,0.8,2.,0.8
1979-03-01 03:00:28.950 ,5,0,3.,0.8,0.,0.8,0.,0.8,4.,0.8
1979-03-01 03:00:29.750 ,5,0,4.,0.8,0.,0.8,1.,0.8,7.,0.8
1979-03-01 03:00:30.550 ,5,0,3.,0.8,0.,0.8,0.,0.8,8.,0.8
1979-03-01 03:00:31.350 ,5,0,1.,0.8,0.,0.8,0.,0.8,1.,0.8
1979-03-01 03:00:32.150 ,5,0,1.,0.8,0.,0.8,0.,0.8,6.,0.8
1979-03-01 03:00:32.950 ,5,0,2.,0.8,0.,0.8,0.,0.8,7.,0.8
1979-03-01 03:00:33.750 ,5,0,0.,0.8,0.,0.8,0.,0.8,5.,0.8
1979-03-01 03:00:34.550 ,5,0,2.,0.8,0.,0.8,0.,0.8,4.,0.8
1979-03-01 03:00:35.350 ,5,0,2.,0.8,0.,0.8,0.,0.8,4.,0.8
1979-03-01 03:00:36.150 ,6,0,2.,0.8,0.,0.8,0.,0.8,7.,0.8
1979-03-01 03:00:36.950 ,6,0,2.,0.8,0.,0.8,0.,0.8,2.,0.8
1979-03-01 03:00:37.750 ,6,0,2.,0.8,0.,0.8,1.,0.8,3.,0.8
1979-03-01 03:00:38.550 ,6,0,2.,0.8,0.,0.8,0.,0.8,3.,0.8
1979-03-01 03:00:39.350 ,6,0,1.,0.8,0.,0.8,0.,0.8,6.,0.8
1979-03-01 03:00:40.150 ,6,0,1.,0.8,0.,0.8,0.,0.8,4.,0.8
1979-03-01 03:00:40.950 ,6,0,2.,0.8,0.,0.8,0.,0.8,6.,0.8
1979-03-01 03:00:41.750 ,6,0,2.,0.8,0.,0.8,1.,0.8,6.,0.8
1979-03-01 03:00:42.550 ,6,0,3.,0.8,0.,0.8,1.,0.8,8.,0.8
1979-03-01 03:00:43.350 ,6,0,0.,0.8,0.,0.8,0.,0.8,5.,0.8
1979-03-01 03:00:44.150 ,6,0,2.,0.8,0.,0.8,0.,0.8,7.,0.8
1979-03-01 03:00:44.950 ,6,0,2.,0.8,0.,0.8,0.,0.8,5.,0.8
1979-03-01 03:00:45.750 ,6,0,2.,0.8,0.,0.8,0.,0.8,5.,0.8
1979-03-01 03:00:46.550 ,6,0,1.,0.8,0.,0.8,2.,0.8,5.,0.8
1979-03-01 03:00:47.350 ,6,0,3.,0.8,0.,0.8,1.,0.8,11.,0.8
1979-03-01 03:00:48.150 ,6,0,2.,0.8,0.,0.8,0.,0.8,6.,0.8
1979-03-01 03:00:48.950 ,6,0,,0,,0,,0,,0
1979-03-01 03:00:49.750 ,6,0,3.,0.8,0.,0.8,0.,0.8,5.,0.8
1979-03-01 03:00:50.550 ,6,0,1.,0.8,0.,0.8,0.,0.8,4.,0.8
1979-03-01 03:00:51.350 ,6,0,2.,0.8,0.,0.8,0.,0.8,1.,0.8
1979-03-01 03:00:52.150 ,6,0,2.,0.8,1.,0.8,0.,0.8,4.,0.8
1979-03-01 03:00:52.950 ,6,0,1.,0.8,0.,0.8,0.,0.8,5.,0.8
1979-03-01 03:00:53.750 ,6,0,4.,0.8,0.,0.8,0.,0.8,3.,0.8
1979-03-01 03:00:54.550 ,6,0,1.,0.8,0.,0.8,0.,0.8,0.,0.8
1979-03-01 03:00:55.350 ,6,0,3.,0.8,0.,0.8,0.,0.8,7.,0.8
1979-03-01 03:00:56.150 ,6,0,1.,0.8,0.,0.8,0.,0.8,5.,0.8
1979-03-01 03:00:56.950 ,6,0,0.,0.8,0.,0.8,0.,0.8,11.,0.8
1979-03-01 03:00:57.750 ,6,0,0.,0.8,1.,0.8,1.,0.8,4.,0.8
1979-03-01 03:00:58.550 ,6,0,3.,0.8,0.,0.8,0.,0.8,2.,0.8
1979-03-01 03:00:59.350 ,6,0,2.,0.8,0.,0.8,0.,0.8,6.,0.8
1979-03-01 03:01:00.150 ,7,0,3.,0.8,1.,0.8,0.,0.8,3.,0.8
1979-03-01 03:01:00.950 ,7,0,3.,0.8,0.,0.8,0.,0.8,3.,0.8
1979-03-01 03:01:01.750 ,7,0,1.,0.8,0.,0.8,0.,0.8,0.,0.8
1979-03-01 03:01:02.550 ,7,0,2.,0.8,0.,0.8,1.,0.8,6.,0.8
1979-03-01 03:01:03.350 ,7,0,2.,0.8,0.,0.8,0.,0.8,10.,0.8
1979-03-01 03:01:04.150 ,7,0,1.,0.8,0.,0.8,0.,0.8,5.,0.8
1979-03-01 03:01:04.950 ,7,0,0.,0.8,0.,0.8,1.,0.8,7.,0.8
1979-03-01 03:01:05.750 ,7,0,2.,0.8,0.,0.8,0.,0.8,3.,0.8
1979-03-01 03:01:06.550 ,7,0,1.,0.8,0.,0.8,0.,0.8,4.,0.8
1979-03-01 03:01:07.350 ,7,0,5.,0.8,0.,0.8,0.,0.8,13.,0.8
1979-03-01 03:01:08.150 ,7,0,1.,0.8,0.,0.8,0.,0.8,5.,0.8
1979-03-01 03:01:08.950 ,7,0,3.,0.8,0.,0.8,0.,0.8,4.,0.8
1979-03-01 03:01:09.750 ,7,0,2.,0.8,0.,0.8,0.,0.8,5.,0.8
1979-03-01 03:01:10.550 ,7,0,,0,,0,,0,,0
1979-03-01 03:01:11.350 ,7,0,2.,0.8,0.,0.8,0.,0.8,1.,0.8
1979-03-01 03:01:12.150 ,7,0,3.,0.8,0.,0.8,0.,0.8,5.,0.8
1979-03-01 03:01:12.950 ,7,0,1.,0.8,0.,0.8,0.,0.8,12.,0.8
1979-03-01 03:01:13.750 ,7,0,2.,0.8,0.,0.8,0.,0.8,7.,0.8
1979-03-01 03:01:14.550 ,7,0,3.,0.8,0.,0.8,0.,0.8,8.,0.8
1979-03-01 03:01:15.350 ,7,0,1.,0.8,0.,0.8,0.,0.8,10.,0.8
1979-03-01 03:01:16.150 ,7,0,0.,0.8,0.,0.8,0.,0.8,4.,0.8
1979-03-01 03:01:16.950 ,7,0,2.,0.8,0.,0.8,0.,0.8,4.,0.8
1979-03-01 03:01:17.750 ,7,0,1.,0.8,0.,0.8,0.,0.8,6.,0.8
1979-03-01 03:01:18.550 ,7,0,2.,0.8,0.,0.8,0.,0.8,6.,0.8
1979-03-01 03:01:19.350 ,7,0,2.,0.8,0.,0.8,0.,0.8,2.,0.8
1979-03-01 03:01:20.150 ,7,0,4.,0.8,0.,0.8,0.,0.8,4.,0.8
1979-03-01 03:01:20.950 ,7,0,2.,0.8,0.,0.8,0.,0.8,4.,0.8
1979-03-01 03:01:21.750 ,7,0,3.,0.8,0.,0.8,0.,0.8,5.,0.8
1979-03-01 03:01:22.550 ,7,0,2.,0.8,0.,0.8,0.,0.8,7.,0.8
1979-03-01 03:01:23.350 ,7,0,2.,0.8,0.,0.8,0.,0.8,4.,0.8
1979-03-01 03:01:24.150 ,7,0,0.,0.8,0.,0.8,0.,0.8,4.,0.8
1979-03-01 03:01:24.950 ,7,0,3.,0.8,0.,0.8,0.,0.8,5.,0.8
1979-03-01 03:01:25.750 ,7,0,1.,0.8,0.,0.8,0.,0.8,5.,0.8
1979-03-01 03:01:26.550 ,7,0,1.,0.8,0.,0.8,0.,0.8,6.,0.8
1979-03-01 03:01:27.350 ,7,0,2.,0.8,0.,0.8,0.,0.8,7.,0.8
1979-03-01 03:01:28.150 ,7,0,3.,0.8,0.,0.8,0.,0.8,3.,0.8
1979-03-01 03:01:28.950 ,7,0,2.,0.8,0.,0.8,0.,0.8,3.,0.8
1979-03-01 03:01:29.750 ,7,0,2.,0.8,0.,0.8,0.,0.8,5.,0.8
1979-03-01 03:01:30.550 ,7,0,1.,0.8,0.,0.8,0.,0.8,2.,0.8
1979-03-01 03:01:31.350 ,7,0,2.,0.8,0.,0.8,0.,0.8,6.,0.8
1979-03-01 03:01:32.150 ,7,0,2.,0.8,0.,0.8,0.,0.8,3.,0.8
1979-03-01 03:01:32.950 ,7,0,2.,0.8,0.,0.8,0.,0.8,4.,0.8
1979-03-01 03:01:33.750 ,7,0,2.,0.8,0.,0.8,0.,0.8,10.,0.8
1979-03-01 03:01:34.550 ,7,0,1.,0.8,0.,0.8,0.,0.8,6.,0.8
1979-03-01 03:01:35.350 ,7,0,3.,0.8,0.,0.8,0.,0.8,5.,0.8
1979-03-01 03:01:36.150 ,7,0,1.,0.8,0.,0.8,0.,0.8,2.,0.8
1979-03-01 03:01:36.950 ,7,0,3.,0.8,0.,0.8,0.,0.8,3.,0.8
1979-03-01 03:01:37.750 ,7,0,0.,0.8,0.,0.8,0.,0.8,7.,0.8
1979-03-01 03:01:38.550 ,7,0,1.,0.8,0.,0.8,0.,0.8,6.,0.8
1979-03-01 03:01:39.350 ,7,0,1.,0.8,0.,0.8,0.,0.8,2.,0.8
1979-03-01 03:01:40.150 ,7,0,1.,0.8,0.,0.8,0.,0.8,5.,0.8
1979-03-01 03:01:40.950 ,7,0,0.,0.8,0.,0.8,0.,0.8,2.,0.8
1979-03-01 03:01:41.750 ,7,0,4.,0.8,0.,0.8,0.,0.8,3.,0.8
1979-03-01 03:01:42.550 ,7,0,4.,0.8,0.,0.8,0.,0.8,4.,0.8
1979-03-01 03:01:43.350 ,7,0,1.,0.8,0.,0.8,0.,0.8,10.,0.8
1979-03-01 03:01:44.150 ,7,0,1.,0.8,0.,0.8,0.,0.8,8.,0.8
1979-03-01 03:01:44.950 ,7,0,1.,0.8,0.,0.8,0.,0.8,1.,0.8
1979-03-01 03:01:45.750 ,7,0,2.,0.8,0.,0.8,0.,0.8,3.,0.8
1979-03-01 03:01:46.550 ,7,0,1.,0.8,0.,0.8,0.,0.8,5.,0.8
1979-03-01 03:01:47.350 ,7,0,1.,0.8,0.,0.8,0.,0.8,3.,0.8
1979-03-01 03:01:48.150 ,6,0,2.,0.8,0.,0.8,0.,0.8,5.,0.8
1979-03-01 03:01:48.950 ,6,0,1.,0.8,0.,0.8,0.,0.8,6.,0.8
1979-03-01 03:01:49.750 ,6,0,0.,0.8,0.,0.8,0.,0.8,4.,0.8
1979-03-01 03:01:50.550 ,6,0,1.,0.8,0.,0.8,0.,0.8,3.,0.8
1979-03-01 03:01:51.350 ,6,0,2.,0.8,0.,0.8,0.,0.8,7.,0.8
1979-03-01 03:01:52.150 ,6,0,4.,0.8,0.,0.8,0.,0.8,6.,0.8
1979-03-01 03:01:52.950 ,6,0,0.,0.8,0.,0.8,0.,0.8,9.,0.8
1979-03-01 03:01:53.750 ,6,0,2.,0.8,0.,0.8,0.,0.8,3.,0.8
1979-03-01 03:01:54.550 ,6,0,3.,0.8,0.,0.8,0.,0.8,5.,0.8
1979-03-01 03:01:55.350 ,6,0,3.,0.8,0.,0.8,1.,0.8,7.,0.8
1979-03-01 03:01:56.150 ,6,0,1.,0.8,0.,0.8,0.,0.8,3.,0.8
1979-03-01 03:01:56.950 ,6,0,1.,0.8,0.,0.8,0.,0.8,5.,0.8
1979-03-01 03:01:57.750 ,6,0,0.,0.8,0.,0.8,0.,0.8,2.,0.8
1979-03-01 03:01:58.550 ,6,0,3.,0.8,0.,0.8,0.,0.8,2.,0.8
1979-03-01 03:01:59.350 ,6,0,1.,0.8,0.,0.8,0.,0.8,7.,0.8
1979-03-01 03:02:00.150 ,6,0,2.,0.8,0.,0.8,0.,0.8,3.,0.8
1979-03-01 03:02:00.950 ,6,0,1.,0.8,0.,0.8,0.,0.8,4.,0.8
1979-03-01 03:02:01.750 ,6,0,0.,0.8,0.,0.8,0.,0.8,0.,0.8
1979-03-01 03:02:02.550 ,6,0,0.,0.8,0.,0.8,1.,0.8,6.,0.8
1979-03-01 03:02:03.350 ,6,0,2.,0.8,0.,0.8,0.,0.8,5.,0.8
1979-03-01 03:02:04.150 ,6,0,2.,0.8,0.,0.8,1.,0.8,4.,0.8
1979-03-01 03:02:04.950 ,6,0,1.,0.8,0.,0.8,0.,0.8,5.,0.8
1979-03-01 03:02:05.750 ,6,0,1.,0.8,0.,0.8,0.,0.8,3.,0.8
1979-03-01 03:02:06.550 ,6,0,3.,0.8,0.,0.8,0.,0.8,8.,0.8
1979-03-01 03:02:07.350 ,6,0,1.,0.8,0.,0.8,0.,0.8,7.,0.8
1979-03-01 03:02:08.150 ,6,0,1.,0.8,0.,0.8,0.,0.8,7.,0.8
1979-03-01 03:02:08.950 ,6,0,2.,0.8,0.,0.8,0.,0.8,5.,0.8
1979-03-01 03:02:09.750 ,6,0,3.,0.8,0.,0.8,1.,0.8,7.,0.8
1979-03-01 03:02:10.550 ,6,0,1.,0.8,0.,0.8,1.,0.8,2.,0.8
1979-03-01 03:02:11.350 ,6,0,1.,0.8,0.,0.8,0.,0.8,3.,0.8
1979-03-01 03:02:12.150 ,5,0,1.,0.8,0.,0.8,1.,0.8,5.,0.8
1979-03-01 03:02:12.950 ,5,0,3.,0.8,0.,0.8,0.,0.8,7.,0.8
1979-03-01 03:02:13.750 ,5,0,0.,0.8,0.,0.8,0.,0.8,5.,0.8
1979-03-01 03:02:14.550 ,5,0,4.,0.8,0.,0.8,0.,0.8,8.,0.8
1979-03-01 03:02:15.350 ,5,0,0.,0.8,0.,0.8,0.,0.8,6.,0.8
1979-03-01 03:02:16.150 ,5,0,3.,0.8,0.,0.8,1.,0.8,3.,0.8
1979-03-01 03:02:16.950 ,5,0,1.,0.8,1.,0.8,1.,0.8,5.,0.8
1979-03-01 03:02:17.750 ,5,0,2.,0.8,0.,0.8,0.,0.8,9.,0.8
1979-03-01 03:02:18.550 ,5,0,3.,0.8,0.,0.8,0.,0.8,7.,0.8
1979-03-01 03:02:19.350 ,5,0,3.,0.8,0.,0.8,0.,0.8,5.,0.8
1979-03-01 03:02:20.150 ,5,0,2.,0.8,0.,0.8,0.,0.8,12.,0.8
1979-03-01 03:02:20.950 ,5,0,3.,0.8,1.,0.8,0.,0.8,1.,0.8
1979-03-01 03:02:21.750 ,5,0,1.,0.8,0.,0.8,1.,0.8,2.,0.8
1979-03-01 03:02:22.550 ,5,0,0.,0.8,0.,0.8,0.,0.8,4.,0.8
1979-03-01 03:02:23.350 ,5,0,2.,0.8,0.,0.8,0.,0.8,4.,0.8
1979-03-01 03:02:24.150 ,5,0,,0,,0,,0,,0
1979-03-01 03:02:24.950 ,5,0,,0,,0,,0,,0
1979-03-01 03:02:25.750 ,5,0,4.,0.8,0.,0.8,1.,0.8,10.,0.8
1979-03-01 03:02:26.550 ,5,0,1.,0.8,0.,0.8,0.,0.8,8.,0.8
1979-03-01 03:02:27.350 ,5,0,3.,0.8,0.,0.8,0.,0.8,3.,0.8
1979-03-01 03:02:28.150 ,5,0,1.,0.8,0.,0.8,0.,0.8,5.,0.8
1979-03-01 03:02:28.950 ,5,0,2.,0.8,0.,0.8,0.,0.8,3.,0.8
1979-03-01 03:02:29.750 ,5,0,1.,0.8,0.,0.8,0.,0.8,3.,0.8
1979-03-01 03:02:30.550 ,5,0,1.,0.8,0.,0.8,0.,0.8,4.,0.8
1979-03-01 03:02:31.350 ,5,0,3.,0.8,0.,0.8,0.,0.8,3.,0.8
1979-03-01 03:02:32.150 ,5,0,3.,0.8,0.,0.8,0.,0.8,8.,0.8
1979-03-01 03:02:32.950 ,5,0,3.,0.8,0.,0.8,1.,0.8,5.,0.8
1979-03-01 03:02:33.750 ,5,0,1.,0.8,0.,0.8,0.,0.8,5.,0.8
1979-03-01 03:02:34.550 ,5,0,1.,0.8,0.,0.8,0.,0.8,6.,0.8
1979-03-01 03:02:35.350 ,5,0,2.,0.8,0.,0.8,0.,0.8,2.,0.8
1979-03-01 03:02:36.150 ,4,0,2.,0.8,0.,0.8,1.,0.8,5.,0.8
1979-03-01 03:02:36.950 ,4,0,3.,0.8,0.,0.8,0.,0.8,4.,0.8
1979-03-01 03:02:37.750 ,4,0,2.,0.8,0.,0.8,0.,0.8,4.,0.8
1979-03-01 03:02:38.550 ,4,0,2.,0.8,0.,0.8,0.,0.8,4.,0.8
1979-03-01 03:02:39.350 ,4,0,1.,0.8,0.,0.8,0.,0.8,5.,0.8
1979-03-01 03:02:40.150 ,4,0,2.,0.8,0.,0.8,0.,0.8,6.,0.8
1979-03-01 03:02:40.950 ,4,0,2.,0.8,0.,0.8,0.,0.8,4.,0.8
1979-03-01 03:02:41.750 ,4,0,3.,0.8,0.,0.8,1.,0.8,7.,0.8
1979-03-01 03:02:42.550 ,4,0,3.,0.8,0.,0.8,0.,0.8,5.,0.8
1979-03-01 03:02:43.350 ,4,0,1.,0.8,0.,0.8,0.,0.8,3.,0.8
1979-03-01 03:02:44.150 ,4,0,5.,0.8,0.,0.8,1.,0.8,4.,0.8
1979-03-01 03:02:44.950 ,4,0,2.,0.8,0.,0.8,0.,0.8,3.,0.8
1979-03-01 03:02:45.750 ,4,0,2.,0.8,0.,0.8,0.,0.8,6.,0.8
1979-03-01 03:02:46.550 ,4,0,3.,0.8,0.,0.8,0.,0.8,6.,0.8
1979-03-01 03:02:47.350 ,4,0,0.,0.8,0.,0.8,0.,0.8,2.,0.8
1979-03-01 03:02:48.150 ,4,0,5.,0.8,1.,0.8,1.,0.8,4.,0.8
1979-03-01 03:02:48.950 ,4,0,2.,0.8,1.,0.8,1.,0.8,3.,0.8
1979-03-01 03:02:49.750 ,4,0,2.,0.8,0.,0.8,1.,0.8,4.,0.8
1979-03-01 03:02:50.550 ,4,0,1.,0.8,0.,0.8,1.,0.8,4.,0.8
1979-03-01 03:02:51.350 ,4,0,3.,0.8,0.,0.8,0.,0.8,8.,0.8
1979-03-01 03:02:52.150 ,4,0,2.,0.8,0.,0.8,0.,0.8,9.,0.8
1979-03-01 03:02:52.950 ,4,0,3.,0.8,1.,0.8,0.,0.8,5.,0.8
1979-03-01 03:02:53.750 ,4,0,2.,0.8,0.,0.8,0.,0.8,5.,0.8
1979-03-01 03:02:54.550 ,4,0,3.,0.8,0.,0.8,1.,0.8,6.,0.8
1979-03-01 03:02:55.350 ,4,0,3.,0.8,0.,0.8,0.,0.8,5.,0.8
1979-03-01 03:02:56.150 ,4,0,3.,0.8,0.,0.8,0.,0.8,4.,0.8
1979-03-01 03:02:56.950 ,4,0,0.,0.8,0.,0.8,0.,0.8,3.,0.8
1979-03-01 03:02:57.750 ,4,0,4.,0.8,0.,0.8,0.,0.8,4.,0.8
1979-03-01 03:02:58.550 ,4,0,1.,0.8,0.,0.8,0.,0.8,8.,0.8
1979-03-01 03:02:59.350 ,4,0,1.,0.8,0.,0.8,0.,0.8,2.,0.8
1979-03-01 03:03:00.150 ,3,0,2.,0.8,0.,0.8,0.,0.8,5.,0.8
1979-03-01 03:03:00.950 ,3,0,3.,0.8,0.,0.8,0.,0.8,5.,0.8
1979-03-01 03:03:01.750 ,3,0,4.,0.8,0.,0.8,0.,0.8,5.,0.8
1979-03-01 03:03:02.550 ,3,0,1.,0.8,0.,0.8,0.,0.8,6.,0.8
1979-03-01 03:03:03.350 ,3,0,3.,0.8,0.,0.8,0.,0.8,5.,0.8
1979-03-01 03:03:04.150 ,3,0,0.,0.8,0.,0.8,2.,0.8,5.,0.8
1979-03-01 03:03:04.950 ,3,0,2.,0.8,0.,0.8,0.,0.8,4.,0.8
1979-03-01 03:03:05.750 ,3,0,2.,0.8,0.,0.8,0.,0.8,5.,0.8
1979-03-01 03:03:06.550 ,3,0,2.,0.8,0.,0.8,0.,0.8,2.,0.8
1979-03-01 03:03:07.350 ,3,0,2.,0.8,0.,0.8,0.,0.8,5.,0.8
1979-03-01 03:03:08.150 ,3,0,2.,0.8,0.,0.8,0.,0.8,9.,0.8
1979-03-01 03:03:08.950 ,3,0,3.,0.8,0.,0.8,0.,0.8,10.,0.8
1979-03-01 03:03:09.750 ,3,0,2.,0.8,0.,0.8,0.,0.8,5.,0.8
1979-03-01 03:03:10.550 ,3,0,2.,0.8,0.,0.8,0.,0.8,2.,0.8
1979-03-01 03:03:11.350 ,3,0,2.,0.8,0.,0.8,0.,0.8,6.,0.8
1979-03-01 03:03:12.150 ,3,0,2.,0.8,1.,0.8,0.,0.8,2.,0.8
1979-03-01 03:03:12.950 ,3,0,3.,0.8,1.,0.8,0.,0.8,3.,0.8
1979-03-01 03:03:13.750 ,3,0,2.,0.8,0.,0.8,1.,0.8,6.,0.8
1979-03-01 03:03:14.550 ,3,0,3.,0.8,0.,0.8,0.,0.8,6.,0.8
1979-03-01 03:03:15.350 ,3,0,2.,0.8,0.,0.8,1.,0.8,3.,0.8
1979-03-01 03:03:16.150 ,3,0,2.,0.8,0.,0.8,0.,0.8,7.,0.8
1979-03-01 03:03:16.950 ,3,0,4.,0.8,0.,0.8,0.,0.8,7.,0.8
1979-03-01 03:03:17.750 ,3,0,4.,0.8,0.,0.8,0.,0.8,6.,0.8
1979-03-01 03:03:18.550 ,3,0,3.,0.8,0.,0.8,0.,0.8,5.,0.8
1979-03-01 03:03:19.350 ,3,0,1.,0.8,0.,0.8,0.,0.8,9.,0.8
1979-03-01 03:03:20.150 ,3,0,1.,0.8,0.,0.8,1.,0.8,4.,0.8
1979-03-01 03:03:20.950 ,3,0,4.,0.8,0.,0.8,2.,0.8,2.,0.8
1979-03-01 03:03:21.750 ,3,0,2.,0.8,0.,0.8,0.,0.8,8.,0.8
1979-03-01 03:03:22.550 ,3,0,1.,0.8,1.,0.8,0.,0.8,5.,0.8
1979-03-01 03:03:23.350 ,3,0,1.,0.8,0.,0.8,0.,0.8,2.,0.8
1979-03-01 03:03:24.150 ,2,0,3.,0.8,0.,0.8,0.,0.8,5.,0.8
1979-03-01 03:03:24.950 ,2,0,2.,0.8,0.,0.8,0.,0.8,2.,0.8
1979-03-01 03:03:25.750 ,2,0,2.,0.8,1.,0.8,0.,0.8,0.,0.8
1979-03-01 03:03:26.550 ,2,0,2.,0.8,0.,0.8,0.,0.8,5.,0.8
1979-03-01 03:03:27.350 ,2,0,2.,0.8,1.,0.8,2.,0.8,7.,0.8
1979-03-01 03:03:28.150 ,2,0,2.,0.8,0.,0.8,1.,0.8,7.,0.8
1979-03-01 03:03:28.950 ,2,0,3.,0.8,0.,0.8,0.,0.8,7.,0.8
1979-03-01 03:03:29.750 ,2,0,3.,0.8,0.,0.8,0.,0.8,4.,0.8
1979-03-01 03:03:30.550 ,2,0,4.,0.8,0.,0.8,0.,0.8,7.,0.8
1979-03-01 03:03:31.350 ,2,0,3.,0.8,0.,0.8,0.,0.8,12.,0.8
1979-03-01 03:03:32.150 ,2,0,1.,0.8,0.,0.8,0.,0.8,4.,0.8
1979-03-01 03:03:32.950 ,2,0,1.,0.8,0.,0.8,0.,0.8,6.,0.8
1979-03-01 03:03:33.750 ,2,0,4.,0.8,0.,0.8,0.,0.8,9.,0.8
1979-03-01 03:03:34.550 ,2,0,0.,0.8,0.,0.8,0.,0.8,4.,0.8
1979-03-01 03:03:35.350 ,2,0,4.,0.8,0.,0.8,0.,0.8,2.,0.8
1979-03-01 03:03:36.150 ,2,0,2.,0.8,0.,0.8,0.,0.8,7.,0.8
1979-03-01 03:03:36.950 ,2,0,2.,0.8,0.,0.8,0.,0.8,8.,0.8
1979-03-01 03:03:37.750 ,2,0,2.,0.8,0.,0.8,0.,0.8,2.,0.8
1979-03-01 03:03:38.550 ,2,0,2.,0.8,0.,0.8,0.,0.8,4.,0.8
1979-03-01 03:03:39.350 ,2,0,2.,0.8,0.,0.8,0.,0.8,6.,0.8
1979-03-01 03:03:40.150 ,2,0,1.,0.8,0.,0.8,0.,0.8,4.,0.8
1979-03-01 03:03:40.950 ,2,0,1.,0.8,0.,0.8,1.,0.8,2.,0.8
1979-03-01 03:03:41.750 ,2,0,1.,0.8,0.,0.8,0.,0.8,7.,0.8
1979-03-01 03:03:42.550 ,2,0,5.,0.8,0.,0.8,0.,0.8,7.,0.8
1979-03-01 03:03:43.350 ,2,0,2.,0.8,0.,0.8,0.,0.8,4.,0.8
1979-03-01 03:03:44.150 ,2,0,2.,0.8,1.,0.8,0.,0.8,4.,0.8
1979-03-01 03:03:44.950 ,2,0,5.,0.8,0.,0.8,1.,0.8,7.,0.8
1979-03-01 03:03:45.750 ,2,0,3.,0.8,0.,0.8,1.,0.8,10.,0.8
1979-03-01 03:03:46.550 ,2,0,2.,0.8,0.,0.8,0.,0.8,7.,0.8
1979-03-01 03:03:47.350 ,2,0,2.,0.8,0.,0.8,0.,0.8,3.,0.8
1979-03-01 03:03:48.150 ,1,0,3.,0.8,0.,0.8,0.,0.8,4.,0.8
1979-03-01 03:03:48.950 ,1,0,0.,0.8,0.,0.8,0.,0.8,5.,0.8
1979-03-01 03:03:49.750 ,1,0,2.,0.8,0.,0.8,0.,0.8,4.,0.8
1979-03-01 03:03:50.550 ,1,0,2.,0.8,0.,0.8,0.,0.8,2.,0.8
1979-03-01 03:03:51.350 ,1,0,2.,0.8,0.,0.8,0.,0.8,8.,0.8
1979-03-01 03:03:52.150 ,1,0,3.,0.8,0.,0.8,0.,0.8,1.,0.8
1979-03-01 03:03:52.950 ,1,0,4.,0.8,0.,0.8,0.,0.8,8.,0.8
1979-03-01 03:03:53.750 ,1,0,2.,0.8,0.,0.8,0.,0.8,4.,0.8
1979-03-01 03:03:54.550 ,1,0,2.,0.8,0.,0.8,1.,0.8,4.,0.8
1979-03-01 03:03:55.350 ,1,0,3.,0.8,0.,0.8,0.,0.8,4.,0.8
1979-03-01 03:03:56.150 ,1,0,3.,0.8,0.,0.8,0.,0.8,7.,0.8
1979-03-01 03:03:56.950 ,1,0,0.,0.8,0.,0.8,3.,0.8,5.,0.8
1979-03-01 03:03:57.750 ,1,0,3.,0.8,0.,0.8,0.,0.8,5.,0.8
1979-03-01 03:03:58.550 ,1,0,3.,0.8,0.,0.8,1.,0.8,6.,0.8
1979-03-01 03:03:59.350 ,1,0,2.,0.8,0.,0.8,1.,0.8,8.,0.8
1979-03-01 03:04:00.150 ,1,0,4.,0.8,0.,0.8,0.,0.8,8.,0.8
1979-03-01 03:04:00.950 ,1,0,1.,0.8,0.,0.8,0.,0.8,5.,0.8
1979-03-01 03:04:01.750 ,1,0,1.,0.8,0.,0.8,0.,0.8,6.,0.8
1979-03-01 03:04:02.550 ,1,0,2.,0.8,0.,0.8,0.,0.8,5.,0.8
1979-03-01 03:04:03.350 ,1,0,1.,0.8,0.,0.8,1.,0.8,8.,0.8
1979-03-01 03:04:04.150 ,1,0,1.,0.8,0.,0.8,0.,0.8,3.,0.8
1979-03-01 03:04:04.950 ,1,0,3.,0.8,0.,0.8,1.,0.8,6.,0.8
1979-03-01 03:04:05.750 ,1,0,2.,0.8,0.,0.8,0.,0.8,5.,0.8
1979-03-01 03:04:06.550 ,1,0,0.,0.8,0.,0.8,1.,0.8,7.,0.8
1979-03-01 03:04:07.350 ,1,0,1.,0.8,0.,0.8,0.,0.8,4.,0.8
1979-03-01 03:04:08.150 ,1,0,,0,,0,,0,,0
1979-03-01 03:04:08.950 ,1,0,0.,0.8,0.,0.8,0.,0.8,5.,0.8
1979-03-01 03:04:09.750 ,1,0,1.,0.8,0.,0.8,0.,0.8,5.,0.8
1979-03-01 03:04:10.550 ,1,0,5.,0.8,0.,0.8,0.,0.8,5.,0.8
1979-03-01 03:04:11.350 ,1,0,1.,0.8,0.,0.8,1.,0.8,4.,0.8
1979-03-01 03:04:12.150 ,0,0,3.,0.8,0.,0.8,0.,0.8,5.,0.8
1979-03-01 03:04:12.950 ,0,0,2.,0.8,0.,0.8,0.,0.8,3.,0.8
1979-03-01 03:04:13.750 ,0,0,2.,0.8,0.,0.8,1.,0.8,8.,0.8
1979-03-01 03:04:14.550 ,0,0,2.,0.8,0.,0.8,0.,0.8,5.,0.8
1979-03-01 03:04:15.350 ,0,0,3.,0.8,0.,0.8,0.,0.8,5.,0.8
1979-03-01 03:04:16.150 ,0,0,5.,0.8,0.,0.8,0.,0.8,9.,0.8
1979-03-01 03:04:16.950 ,0,0,3.,0.8,1.,0.8,1.,0.8,9.,0.8
1979-03-01 03:04:17.750 ,0,0,3.,0.8,0.,0.8,0.,0.8,6.,0.8
1979-03-01 03:04:18.550 ,0,0,2.,0.8,1.,0.8,0.,0.8,7.,0.8
1979-03-01 03:04:19.350 ,0,0,0.,0.8,0.,0.8,1.,0.8,2.,0.8
1979-03-01 03:04:20.150 ,0,0,1.,0.8,0.,0.8,0.,0.8,6.,0.8
1979-03-01 03:04:20.950 ,0,0,2.,0.8,0.,0.8,0.,0.8,3.,0.8
1979-03-01 03:04:21.750 ,0,0,3.,0.8,0.,0.8,0.,0.8,5.,0.8
1979-03-01 03:04:22.550 ,0,0,2.,0.8,0.,0.8,0.,0.8,4.,0.8
1979-03-01 03:04:23.350 ,0,0,3.,0.8,0.,0.8,0.,0.8,7.,0.8
1979-03-01 03:04:24.150 ,0,0,2.,0.8,0.,0.8,0.,0.8,3.,0.8
1979-03-01 03:04:24.950 ,0,0,1.,0.8,0.,0.8,0.,0.8,8.,0.8
1979-03-01 03:04:25.750 ,0,0,2.,0.8,0.,0.8,2.,0.8,5.,0.8
1979-03-01 03:04:26.550 ,0,0,3.,0.8,0.,0.8,0.,0.8,6.,0.8
1979-03-01 03:04:27.350 ,0,0,1.,0.8,1.,0.8,0.,0.8,5.,0.8
1979-03-01 03:04:28.150 ,0,0,2.,0.8,0.,0.8,1.,0.8,4.,0.8
1979-03-01 03:04:28.950 ,0,0,2.,0.8,0.,0.8,0.,0.8,5.,0.8
1979-03-01 03:04:29.750 ,0,0,4.,0.8,0.,0.8,0.,0.8,6.,0.8
1979-03-01 03:04:30.550 ,0,0,3.,0.8,0.,0.8,1.,0.8,6.,0.8
1979-03-01 03:04:31.350 ,0,0,4.,0.8,0.,0.8,0.,0.8,5.,0.8
1979-03-01 03:04:32.150 ,0,0,0.,0.8,1.,0.8,1.,0.8,9.,0.8
1979-03-01 03:04:32.950 ,0,0,4.,0.8,0.,0.8,2.,0.8,6.,0.8
1979-03-01 03:04:33.750 ,0,0,4.,0.8,0.,0.8,1.,0.8,4.,0.8
1979-03-01 03:04:34.550 ,0,0,2.,0.8,0.,0.8,0.,0.8,3.,0.8
1979-03-01 03:04:35.350 ,0,0,2.,0.8,0.,0.8,2.,0.8,5.,0.8
1979-03-01 03:04:36.150 ,0,0,3.,0.8,0.,0.8,0.,0.8,4.,0.8
1979-03-01 03:04:36.950 ,0,0,0.,0.8,1.,0.8,0.,0.8,4.,0.8
1979-03-01 03:04:37.750 ,0,0,1.,0.8,0.,0.8,0.,0.8,3.,0.8
1979-03-01 03:04:38.550 ,0,0,0.,0.8,0.,0.8,1.,0.8,8.,0.8
1979-03-01 03:04:39.350 ,0,0,2.,0.8,0.,0.8,0.,0.8,4.,0.8
1979-03-01 03:04:40.150 ,0,0,2.,0.8,1.,0.8,0.,0.8,9.,0.8
1979-03-01 03:04:40.950 ,0,0,4.,0.8,0.,0.8,0.,0.8,6.,0.8
1979-03-01 03:04:41.750 ,0,0,3.,0.8,0.,0.8,1.,0.8,12.,0.8
1979-03-01 03:04:42.550 ,0,0,3.,0.8,1.,0.8,1.,0.8,4.,0.8
1979-03-01 03:04:43.350 ,0,0,2.,0.8,0.,0.8,0.,0.8,3.,0.8
1979-03-01 03:04:44.150 ,0,0,2.,0.8,0.,0.8,0.,0.8,6.,0.8
1979-03-01 03:04:44.950 ,0,0,1.,0.8,0.,0.8,0.,0.8,3.,0.8
1979-03-01 03:04:45.750 ,0,0,0.,0.8,0.,0.8,0.,0.8,4.,0.8
1979-03-01 03:04:46.550 ,0,0,4.,0.8,1.,0.8,0.,0.8,6.,0.8
1979-03-01 03:04:47.350 ,0,0,2.,0.8,0.,0.8,0.,0.8,5.,0.8
1979-03-01 03:04:48.150 ,0,0,1.,0.8,0.,0.8,1.,0.8,7.,0.8
1979-03-01 03:04:48.950 ,0,0,2.,0.8,1.,0.8,0.,0.8,2.,0.8
1979-03-01 03:04:49.750 ,0,0,1.,0.8,0.,0.8,0.,0.8,13.,0.8
1979-03-01 03:04:50.550 ,0,0,2.,0.8,0.,0.8,0.,0.8,5.,0.8
1979-03-01 03:04:51.350 ,0,0,2.,0.8,0.,0.8,1.,0.8,3.,0.8
1979-03-01 03:04:52.150 ,0,0,2.,0.8,0.,0.8,1.,0.8,8.,0.8
1979-03-01 03:04:52.950 ,0,0,1.,0.8,0.,0.8,0.,0.8,5.,0.8
1979-03-01 03:04:53.750 ,0,0,2.,0.8,1.,0.8,0.,0.8,1.,0.8
1979-03-01 03:04:54.550 ,0,0,2.,0.8,0.,0.8,0.,0.8,6.,0.8
1979-03-01 03:04:55.350 ,0,0,1.,0.8,0.,0.8,0.,0.8,2.,0.8
1979-03-01 03:04:56.150 ,0,0,1.,0.8,0.,0.8,0.,0.8,8.,0.8
1979-03-01 03:04:56.950 ,0,0,3.,0.8,0.,0.8,1.,0.8,2.,0.8
1979-03-01 03:04:57.750 ,0,0,4.,0.8,0.,0.8,1.,0.8,5.,0.8
1979-03-01 03:04:58.550 ,0,0,1.,0.8,0.,0.8,1.,0.8,7.,0.8
1979-03-01 03:04:59.350 ,0,0,,0,,0,,0,,0
1979-03-01 03:05:00.150 ,1,0,2.,0.8,0.,0.8,0.,0.8,4.,0.8
1979-03-01 03:05:00.950 ,1,0,4.,0.8,0.,0.8,0.,0.8,7.,0.8
1979-03-01 03:05:01.750 ,1,0,,0,,0,,0,,0
1979-03-01 03:05:02.550 ,1,0,,0,,0,,0,,0
1979-03-01 03:05:03.350 ,1,0,1.,0.8,0.,0.8,0.,0.8,5.,0.8
1979-03-01 03:05:04.150 ,1,0,3.,0.8,0.,0.8,1.,0.8,8.,0.8
1979-03-01 03:05:04.950 ,1,0,1.,0.8,0.,0.8,0.,0.8,2.,0.8
1979-03-01 03:05:05.750 ,1,0,3.,0.8,0.,0.8,0.,0.8,3.,0.8
1979-03-01 03:05:06.550 ,1,0,2.,0.8,0.,0.8,0.,0.8,4.,0.8
1979-03-01 03:05:07.350 ,1,0,1.,0.8,0.,0.8,1.,0.8,3.,0.8
1979-03-01 03:05:08.150 ,1,0,3.,0.8,0.,0.8,0.,0.8,7.,0.8
1979-03-01 03:05:08.950 ,1,0,2.,0.8,0.,0.8,0.,0.8,10.,0.8
1979-03-01 03:05:09.750 ,1,0,1.,0.8,1.,0.8,0.,0.8,6.,0.8
1979-03-01 03:05:10.550 ,1,0,4.,0.8,1.,0.8,0.,0.8,7.,0.8
1979-03-01 03:05:11.350 ,1,0,2.,0.8,0.,0.8,1.,0.8,5.,0.8
1979-03-01 03:05:12.150 ,1,0,4.,0.8,0.,0.8,0.,0.8,4.,0.8
1979-03-01 03:05:12.950 ,1,0,,0,,0,,0,,0
1979-03-01 03:05:13.750 ,1,0,2.,0.8,0.,0.8,0.,0.8,1.,0.8
1979-03-01 03:05:14.550 ,1,0,2.,0.8,0.,0.8,0.,0.8,6.,0.8
1979-03-01 03:05:15.350 ,1,0,2.,0.8,0.,0.8,0.,0.8,4.,0.8
1979-03-01 03:05:16.150 ,1,0,0.,0.8,0.,0.8,1.,0.8,3.,0.8
1979-03-01 03:05:16.950 ,1,0,2.,0.8,1.,0.8,0.,0.8,4.,0.8
1979-03-01 03:05:17.750 ,1,0,2.,0.8,0.,0.8,0.,0.8,4.,0.8
1979-03-01 03:05:18.550 ,1,0,3.,0.8,1.,0.8,0.,0.8,4.,0.8
1979-03-01 03:05:19.350 ,1,0,2.,0.8,1.,0.8,1.,0.8,3.,0.8
1979-03-01 03:05:20.150 ,1,0,4.,0.8,0.,0.8,0.,0.8,8.,0.8
1979-03-01 03:05:20.950 ,1,0,0.,0.8,0.,0.8,0.,0.8,1.,0.8
1979-03-01 03:05:21.750 ,1,0,3.,0.8,0.,0.8,0.,0.8,3.,0.8
1979-03-01 03:05:22.550 ,1,0,2.,0.8,0.,0.8,0.,0.8,4.,0.8
1979-03-01 03:05:23.350 ,1,0,0.,0.8,0.,0.8,0.,0.8,5.,0.8
1979-03-01 03:05:24.150 ,2,0,1.,0.8,0.,0.8,0.,0.8,4.,0.8
1979-03-01 03:05:24.950 ,2,0,3.,0.8,0.,0.8,1.,0.8,3.,0.8
1979-03-01 03:05:25.750 ,2,0,4.,0.8,0.,0.8,0.,0.8,6.,0.8
1979-03-01 03:05:26.550 ,2,0,1.,0.8,0.,0.8,0.,0.8,2.,0.8
1979-03-01 03:05:27.350 ,2,0,3.,0.8,0.,0.8,0.,0.8,5.,0.8
1979-03-01 03:05:28.150 ,2,0,2.,0.8,0.,0.8,0.,0.8,5.,0.8
1979-03-01 03:05:28.950 ,2,0,4.,0.8,0.,0.8,0.,0.8,5.,0.8
1979-03-01 03:05:29.750 ,2,0,0.,0.8,1.,0.8,0.,0.8,0.,0.8
1979-03-01 03:05:30.550 ,2,0,3.,0.8,0.,0.8,1.,0.8,5.,0.8
1979-03-01 03:05:31.350 ,2,0,1.,0.8,0.,0.8,0.,0.8,1.,0.8
1979-03-01 03:05:32.150 ,2,0,2.,0.8,0.,0.8,0.,0.8,9.,0.8
1979-03-01 03:05:32.950 ,2,0,1.,0.8,1.,0.8,0.,0.8,2.,0.8
1979-03-01 03:05:33.750 ,2,0,2.,0.8,0.,0.8,0.,0.8,4.,0.8
1979-03-01 03:05:34.550 ,2,0,1.,0.8,0.,0.8,0.,0.8,2.,0.8
1979-03-01 03:05:35.350 ,2,0,3.,0.8,0.,0.8,0.,0.8,4.,0.8
1979-03-01 03:05:36.150 ,2,0,5.,0.8,0.,0.8,1.,0.8,4.,0.8
1979-03-01 03:05:36.950 ,2,0,4.,0.8,0.,0.8,0.,0.8,8.,0.8
1979-03-01 03:05:37.750 ,2,0,2.,0.8,0.,0.8,0.,0.8,4.,0.8
1979-03-01 03:05:38.550 ,2,0,4.,0.8,0.,0.8,0.,0.8,5.,0.8
1979-03-01 03:05:39.350 ,2,0,1.,0.8,0.,0.8,0.,0.8,3.,0.8
1979-03-01 03:05:40.150 ,2,0,1.,0.8,0.,0.8,0.,0.8,7.,0.8
1979-03-01 03:05:40.950 ,2,0,0.,0.8,0.,0.8,0.,0.8,4.,0.8
1979-03-01 03:05:41.750 ,2,0,3.,0.8,0.,0.8,0.,0.8,4.,0.8
1979-03-01 03:05:42.550 ,2,0,2.,0.8,0.,0.8,0.,0.8,2.,0.8